Location: Amsterdam
(30.7274°N, 84.4357°W)
Time: 05:42:46
(UTC+00:00)

MOZHAYETS 4 - Pass Details

Date: 22 March 2026
Orbit: 642 x 659 km, 98.3° (Epoch: 15 April)

Event Time Altitude Azimuth Distance (km) Brightness Sun altitude
Rises 09:53:29 0° 135° (SE) 2,976 11.4 -23.2°
Reaches altitude 10° 09:56:06 10° 120° (ESE) 2,067 10.8 -22.7°
Maximum altitude 09:59:32 22° 70° (ENE) 1,434 10.3 -22.0°
Drops below altitude 10° 10:02:59 10° 20° (NNE) 2,071 10.7 -21.3°
Sets 10:05:36 0° 5° (N) 2,984 11.3 -20.7°
